Wind_Speed
25 24 24 25 25 25 25 25 25 26 25 26 25 26 26 26 26 25 25 26 26 26 27 27 27 28 28 29 28 27 27 28 29 30 30 30 30 30 31 31 31 33 34
24 23 23 23 24 24 25 25 25 25 25 25 25 25 25 25 25 25 25 25 24 24 25 26 26 27 27 27 27 26 26 27 28 29 29 28 29 29 30 31 32 33 34
23 23 23 23 23 23 23 23 22 23 23 23 23 24 24 23 23 24 24 24 24 23 24 25 25 26 26 25 25 25 25 25 26 27 28 28 29 29 30 30 31 32 33
23 23 23 23 22 21 21 21 22 22 22 22 22 23 23 22 22 23 22 22 22 22 23 23 23 22 22 22 23 23 23 23 24 25 25 27 27 28 29 29 30 30 31
22 22 22 22 21 21 21 21 20 20 20 20 20 20 21 21 21 21 20 20 20 20 20 20 19 19 19 20 21 21 22 22 23 24 24 25 25 26 27 27 27 28 29
21 20 20 20 19 19 20 20 19 18 17 17 17 17 18 17 17 18 18 17 17 17 17 17 18 18 18 18 19 20 21 21 21 21 22 23 24 24 24 25 26 26 27
19 19 18 18 17 17 18 18 17 17 16 16 16 15 14 15 15 15 15 16 16 16 16 16 17 17 17 17 18 18 18 19 20 20 21 22 22 22 23 24 24 24 24
18 17 17 16 16 16 16 16 16 16 15 15 15 15 14 14 14 13 13 13 13 13 14 14 15 15 16 16 16 17 17 18 18 18 18 19 19 20 21 21 21 22 22
15 15 15 15 14 15 14 14 14 14 14 13 13 13 12 12 12 11 11 11 11 11 11 12 12 12 12 13 14 15 15 16 15 16 16 17 18 18 18 18 18 18 18
13 13 13 13 13 12 12 11 11 11 11 11 11 10 10 9 9 9 9 9 9 9 10 10 10 10 11 11 12 13 13 14 14 15 15 16 16 16 16 16 16 16 17
11 11 11 11 10 9 9 8 8 8 8 8 8 8 7 7 6 7 7 7 7 8 8 8 9 9 9 10 11 12 12 13 13 13 14 14 14 14 14 15 15 15 15
10 9 8 8 7 6 5 6 6 6 5 5 5 5 5 5 5 5 5 5 6 6 6 7 7 8 9 9 10 11 11 11 11 12 12 12 12 13 13 13 14 14 14
7 5 5 4 4 4 4 3 3 3 3 2 2 2 2 3 3 3 4 4 4 4 5 5 6 7 8 8 9 9 9 9 10 10 10 10 10 11 12 12 13 13 14
3 3 2 2 2 1 1 1 1 1 1 1 1 1 2 2 3 3 3 3 3 4 4 5 6 6 6 7 8 8 9 9 9 9 9 9 10 10 11 12 12 13 13
1 1 1 2 3 3 3 3 2 2 2 2 2 3 3 3 3 3 2 3 3 4 4 5 5 5 6 6 7 8 8 9 9 9 9 9 10 10 11 11 11 12 12
2 3 4 4 4 4 4 5 4 4 4 4 3 4 5 5 5 5 5 5 5 5 5 5 6 6 7 8 8 9 9 9 10 10 10 11 11 11 11 11 11 11 12
5 6 6 6 6 6 6 6 6 6 6 5 6 6 6 7 7 7 8 8 8 8 7 7 8 8 9 10 10 10 10 11 11 11 12 12 12 12 12 12 12 12 13
6 6 7 7 7 8 8 8 8 8 8 8 8 8 9 9 10 10 10 10 10 10 10 10 11 11 11 11 12 12 13 13 13 13 13 13 13 13 13 14 14 14 14
8 8 9 9 9 9 9 10 10 10 11 11 12 12 12 12 12 12 12 12 12 12 12 12 12 12 13 13 13 14 14 15 14 14 14 14 14 15 15 15 15 15 15
10 10 10 11 11 11 11 12 12 13 13 14 14 14 14 14 14 14 14 14 14 14 14 14 13 13 14 14 14 15 15 15 16 16 16 16 16 16 16 17 17 17 17
11 11 12 12 12 13 13 13 14 14 15 15 15 16 16 16 15 16 15 15 15 15 14 14 15 15 15 15 15 15 15 16 16 16 16 17 18 18 18 18 19 19 19
11 12 13 13 13 13 14 14 14 15 15 16 16 16 16 16 16 16 15 15 15 15 15 15 15 15 15 15 16 16 16 16 16 17 17 18 18 19 19 19 20 20 20
12 13 14 14 14 14 14 14 15 15 15 15 16 16 16 16 16 16 15 15 15 15 15 15 15 15 16 16 16 16 16 17 17 18 18 19 19 20 20 20 20 21 21
13 13 14 14 14 14 14 14 14 14 15 15 15 15 15 15 15 15 15 15 15 15 15 15 15 16 16 16 17 17 17 18 18 19 19 20 20 21 21 22 23 23 23
12 13 13 13 13 13 13 14 14 14 14 14 14 15 15 15 15 15 15 15 15 15 15 15 16 16 16 17 17 17 18 18 19 20 20 21 21 22 23 24 24 25 25
12 12 12 12 12 13 13 13 13 13 13 13 13 14 14 14 14 14 14 14 15 15 15 15 16 16 16 17 17 18 18 19 20 21 22 22 23 24 24 25 26 27 27
Wind_Direction
281 280 279 277 276 276 277 277 278 278 278 277 277 276 275 275 274 273 273 271 271 269 268 267 267 267 267 266 266 267 268 269 271 273 274 277 278 280 281 282 282 283 284
284 282 280 279 278 277 277 277 277 278 279 279 278 276 275 274 272 271 272 271 271 269 270 268 269 271 270 268 268 269 272 275 275 276 277 280 282 284 284 284 285 286 287
284 282 280 279 279 278 277 277 278 277 277 278 278 277 276 274 272 272 273 273 273 271 271 270 270 272 273 272 273 274 275 275 277 277 277 279 282 284 284 285 286 287 288
285 283 281 280 279 278 278 278 279 278 278 278 278 276 275 273 274 274 274 275 273 272 273 274 275 275 277 277 277 278 280 282 282 281 281 281 283 284 285 287 288 288 289
284 282 281 280 279 278 278 279 280 281 281 280 280 277 276 277 276 276 277 278 278 277 277 278 279 279 278 281 283 285 287 289 287 284 284 285 286 287 288 289 290 291 293
284 282 281 281 280 279 279 279 280 280 280 281 280 279 277 276 275 274 278 279 277 280 280 279 281 282 284 287 289 290 290 291 290 289 288 288 289 289 290 291 292 293 294
283 282 281 280 279 280 279 278 278 278 278 279 278 281 277 279 278 276 280 281 278 280 282 281 283 285 285 287 290 292 293 294 293 294 292 291 293 294 295 295 295 296 296
283 282 279 277 277 277 278 277 276 278 276 276 277 278 276 276 278 277 279 281 283 285 285 284 284 285 286 289 291 293 295 296 296 298 298 298 298 298 297 297 298 299 299
283 281 281 279 277 277 275 276 278 277 274 274 276 276 275 276 277 280 285 286 286 286 288 288 288 289 292 293 293 295 297 298 299 300 301 301 300 300 300 300 301 301 302
283 282 281 281 280 278 274 276 277 277 275 271 272 275 274 275 275 277 283 286 289 289 291 294 295 295 296 297 298 300 301 302 303 303 303 304 304 304 305 305 305 306 306
285 283 282 282 279 275 272 270 270 277 276 274 273 276 277 279 278 275 281 286 288 288 289 293 298 301 302 303 306 306 305 306 306 307 307 307 307 307 308 308 308 308 309
286 281 279 282 279 270 263 262 266 268 271 275 277 277 282 285 283 286 290 294 291 290 294 299 304 308 314 315 313 313 312 311 312 312 311 311 311 312 312 313 313 313 314
287 283 277 273 267 261 264 270 271 274 279 282 282 283 292 304 305 300 303 306 312 314 315 318 319 321 325 331 334 332 330 327 325 323 322 322 321 320 320 321 322 321 320
282 274 257 246 237 233 265 280 295 325 340 345 358 6 346 329 326 326 322 327 335 338 336 338 339 343 350 351 350 350 349 348 346 343 339 337 335 334 332 330 329 328 327
339 122 122 129 123 106 92 89 92 85 81 68 55 37 24 23 16 12 25 23 16 15 14 14 14 9 5 4 4 4 5 6 6 4 359 355 352 348 345 343 342 342 342
82 95 104 110 106 98 89 82 79 84 81 69 60 48 48 51 49 51 54 53 50 47 43 39 35 31 29 27 24 21 18 16 15 13 9 6 4 2 1 360 358 355 353
95 99 98 99 98 95 90 86 84 81 78 76 75 69 64 62 62 66 68 66 65 63 60 56 51 47 43 39 35 32 29 26 23 21 19 18 16 13 10 6 3 358 354
96 97 98 100 99 96 93 89 86 84 81 79 79 76 73 73 75 76 75 73 70 68 67 63 58 54 49 44 41 39 37 34 30 28 26 23 20 16 13 9 5 1 357
93 96 99 97 97 97 93 89 87 86 84 81 82 81 80 79 79 79 78 76 72 69 67 63 58 54 51 48 45 41 39 36 34 31 28 25 21 18 15 11 8 4 1
98 99 99 97 95 95 92 90 89 87 86 84 84 83 82 81 80 80 78 76 74 71 67 63 59 55 51 48 45 42 40 37 35 33 30 26 22 18 15 11 9 6 2
99 99 98 98 98 95 93 91 90 89 89 88 86 85 84 82 81 79 77 75 72 69 65 62 58 54 51 48 45 42 38 35 32 29 25 22 19 16 13 10 7 5 3
98 99 100 100 98 95 94 93 92 90 88 86 86 84 83 81 79 77 74 71 68 66 63 60 57 54 51 47 43 39 35 31 28 24 22 19 16 13 10 7 5 3 1
101 101 101 99 97 96 95 94 92 90 88 87 86 85 83 80 78 75 72 69 67 64 61 58 54 51 47 43 39 35 32 29 27 24 21 17 14 12 8 5 2 360 358
100 101 101 100 98 97 96 94 92 90 89 88 86 84 82 79 76 73 70 66 63 60 57 54 50 47 44 41 38 34 31 27 24 21 17 14 11 9 6 3 1 359 356
103 103 102 101 99 98 96 94 93 92 91 89 86 83 80 77 74 71 68 64 60 57 54 51 47 44 41 38 34 31 28 24 20 17 13 10 7 5 3 1 359 357 355
104 104 104 103 102 101 100 98 96 94 92 88 85 81 78 75 72 68 64 60 56 53 51 48 45 41 37 32 28 24 21 17 14 11 8 6 3 360 358 356 355 354 352
Height
5776 5775 5774 5773 5772 5772 5771 5771 5770 5770 5769 5769 5769 5768 5769 5769 5769 5769 5769 5769 5770 5770 5770 5771 5772 5773 5773 5774 5775 5775 5775 5776 5777 5777 5778 5778 5778 5778 5778 5778 5777 5777 5776
5770 5769 5768 5766 5766 5765 5765 5764 5764 5764 5763 5763 5763 5762 5762 5762 5763 5763 5763 5764 5764 5764 5765 5765 5766 5766 5767 5767 5768 5768 5768 5769 5770 5770 5770 5770 5770 5771 5771 5770 5770 5769 5768
5763 5762 5762 5761 5760 5759 5759 5758 5758 5757 5757 5757 5757 5757 5757 5757 5757 5757 5757 5758 5758 5758 5759 5759 5760 5760 5760 5761 5761 5762 5762 5763 5763 5763 5763 5763 5763 5763 5762 5762 5761 5760 5759
5757 5756 5755 5754 5754 5753 5753 5752 5752 5752 5752 5751 5751 5751 5751 5751 5751 5752 5752 5752 5752 5753 5753 5753 5754 5754 5755 5755 5755 5756 5756 5756 5756 5756 5756 5756 5756 5755 5754 5754 5753 5752 5751
5750 5750 5749 5749 5748 5747 5747 5747 5746 5746 5746 5746 5746 5746 5745 5746 5746 5746 5746 5747 5747 5748 5748 5748 5749 5749 5749 5750 5750 5750 5750 5750 5750 5750 5750 5749 5748 5748 5747 5746 5745 5744 5742
5744 5744 5743 5743 5742 5742 5741 5741 5741 5741 5741 5741 5741 5741 5741 5741 5741 5741 5742 5742 5742 5743 5744 5744 5744 5744 5744 5745 5745 5745 5745 5745 5744 5744 5743 5743 5742 5741 5740 5739 5738 5736 5735
5739 5738 5738 5737 5737 5736 5736 5736 5736 5736 5736 5736 5736 5736 5736 5737 5737 5737 5737 5738 5738 5739 5739 5740 5740 5740 5740 5740 5740 5739 5739 5739 5739 5738 5738 5737 5736 5735 5734 5732 5731 5729 5728
5733 5733 5733 5732 5732 5732 5732 5732 5732 5732 5732 5732 5732 5732 5732 5733 5733 5733 5734 5734 5734 5735 5735 5735 5736 5736 5735 5735 5735 5735 5734 5734 5733 5733 5732 5731 5730 5729 5727 5726 5724 5723 5721
5729 5728 5728 5727 5727 5727 5727 5728 5728 5728 5728 5728 5728 5729 5729 5729 5730 5730 5731 5731 5731 5731 5732 5732 5732 5732 5732 5731 5731 5731 5730 5729 5729 5728 5727 5726 5725 5723 5722 5721 5719 5718 5716
5725 5724 5724 5724 5724 5724 5724 5724 5724 5724 5725 5725 5725 5726 5726 5727 5727 5728 5728 5728 5729 5729 5729 5729 5729 5729 5728 5728 5727 5727 5726 5725 5725 5724 5723 5721 5720 5719 5718 5716 5715 5713 5712
5722 5721 5721 5721 5721 5721 5721 5721 5722 5722 5722 5722 5723 5723 5724 5724 5725 5725 5726 5726 5726 5726 5727 5726 5726 5726 5725 5725 5724 5724 5723 5722 5721 5720 5719 5718 5717 5715 5714 5712 5711 5709 5708
5719 5718 5719 5718 5718 5719 5719 5719 5720 5720 5720 5721 5721 5722 5722 5723 5723 5724 5724 5724 5724 5724 5725 5725 5724 5724 5723 5723 5722 5721 5720 5719 5718 5717 5716 5715 5714 5712 5711 5709 5708 5706 5704
5717 5717 5717 5717 5717 5718 5718 5719 5719 5719 5720 5720 5720 5721 5721 5722 5722 5722 5723 5723 5723 5723 5723 5723 5723 5722 5722 5721 5720 5719 5717 5716 5715 5714 5713 5712 5711 5710 5708 5707 5705 5703 5701
5716 5716 5716 5717 5717 5718 5718 5718 5719 5719 5720 5720 5720 5721 5721 5721 5721 5721 5722 5722 5722 5722 5722 5722 5722 5721 5720 5720 5719 5717 5716 5715 5714 5713 5712 5710 5709 5708 5706 5704 5703 5701 5699
5716 5716 5716 5717 5717 5718 5719 5719 5719 5720 5720 5720 5721 5721 5721 5721 5721 5721 5721 5722 5722 5722 5722 5722 5721 5721 5720 5719 5718 5717 5716 5715 5714 5712 5711 5709 5708 5706 5705 5703 5701 5699 5697
5717 5717 5718 5718 5719 5719 5720 5720 5720 5721 5721 5721 5721 5721 5721 5721 5721 5721 5722 5722 5722 5722 5722 5722 5722 5721 5720 5719 5718 5717 5716 5715 5713 5712 5711 5709 5707 5705 5704 5702 5700 5698 5696
5718 5719 5719 5720 5721 5721 5722 5722 5722 5723 5722 5722 5723 5723 5723 5723 5723 5723 5723 5723 5723 5723 5723 5723 5723 5722 5721 5720 5719 5718 5717 5715 5714 5712 5711 5709 5707 5705 5703 5701 5699 5697 5695
5721 5721 5722 5722 5723 5723 5724 5724 5724 5724 5725 5725 5725 5725 5725 5725 5725 5725 5725 5725 5726 5725 5725 5725 5724 5724 5723 5722 5721 5720 5718 5717 5715 5713 5712 5710 5708 5706 5704 5702 5699 5697 5694
5723 5724 5724 5725 5725 5726 5727 5727 5727 5727 5727 5727 5728 5728 5728 5728 5728 5728 5728 5728 5728 5728 5728 5727 5727 5726 5725 5724 5723 5722 5720 5718 5717 5715 5713 5711 5709 5707 5705 5702 5700 5697 5694
5727 5727 5727 5728 5729 5729 5730 5730 5731 5731 5731 5731 5731 5732 5731 5732 5732 5732 5732 5732 5732 5731 5731 5730 5730 5729 5728 5727 5726 5724 5722 5721 5719 5717 5715 5713 5710 5708 5705 5703 5700 5697 5694
5731 5731 5731 5732 5733 5733 5734 5734 5735 5735 5735 5735 5736 5736 5736 5736 5736 5736 5736 5735 5735 5735 5734 5734 5733 5732 5731 5729 5728 5727 5725 5723 5721 5719 5717 5714 5712 5709 5706 5703 5700 5697 5694
5734 5735 5735 5736 5737 5737 5738 5738 5739 5739 5739 5740 5740 5740 5740 5740 5740 5740 5740 5739 5739 5738 5738 5737 5736 5735 5734 5732 5731 5729 5727 5725 5723 5721 5718 5716 5713 5710 5707 5704 5701 5697 5694
5739 5739 5739 5740 5741 5742 5742 5743 5743 5743 5744 5744 5744 5745 5745 5744 5744 5744 5744 5743 5743 5742 5741 5740 5739 5738 5736 5735 5733 5731 5729 5727 5725 5722 5720 5717 5714 5711 5708 5704 5701 5697 5693
5743 5743 5744 5745 5745 5746 5747 5747 5747 5748 5748 5749 5749 5749 5749 5749 5748 5748 5748 5747 5746 5745 5744 5743 5742 5741 5739 5737 5736 5734 5731 5729 5726 5724 5721 5718 5715 5711 5708 5704 5701 5697 5693
5747 5748 5748 5749 5750 5750 5751 5751 5752 5752 5753 5753 5753 5753 5753 5753 5753 5752 5751 5751 5750 5749 5748 5747 5745 5744 5742 5740 5738 5736 5733 5731 5728 5725 5722 5719 5715 5712 5708 5704 5700 5696 5691
5751 5752 5753 5753 5754 5754 5755 5755 5756 5756 5757 5757 5757 5757 5757 5757 5756 5756 5755 5754 5753 5752 5751 5749 5748 5746 5744 5742 5740 5738 5735 5732 5729 5726 5723 5719 5715 5712 5708 5703 5699 5695 5690